Hourly Data Report for October 31, 2019

QUALICUM BEACH AIRPORT
BRITISH COLUMBIA
Current Station Operator: ECCC - MSC

49°20'14.000" N
124°23'38.000" W
58.20 m
1026562
71766
VOQ

Download Data

Hourly Data (October 2019)
Hourly Data Report for October 31, 2019
TIME Temp Definition
°C
Dew Point Definition
°C
Rel Hum Definition
%
Wind Dir Definition
10's deg

Wind Spd Definition
km/h
Visibility Definition
km
Stn Press Definition
kPa
Hmdx Definition


Wind Chill Definition


Weather Definition


00:00 1.6 0.8 95   0   102.04     LegendNANA
01:00 2.1 1.2 94 25 1   102.05     LegendNANA
02:00 2.3 1.5 94 0 1   102.01     LegendNANA
03:00 2.1 1.2 94 23 1   102.00     LegendNANA
04:00 1.7 0.9 94   0   102.00     LegendNANA
05:00 1.7 1.1 96 22 2   102.05     LegendNANA
06:00 2.1 1.3 95 0 1   102.04     LegendNANA
07:00 0.8 0.3 96   0   102.05     LegendNANA
08:00 1.7 1.1 96 26 1   102.11     LegendNANA
09:00 4.4 3.1 91 27 1   102.17     LegendNANA
10:00 8.2 4.0 75 16 6   102.16     LegendNANA
11:00 10.1 4.5 68 7 3   102.18     LegendNANA
12:00 9.6 5.1 74 7 5   102.15     LegendNANA
13:00 10.0 5.6 74 6 7   102.15     LegendNANA
14:00 10.3 5.4 72 4 4   102.16     LegendNANA
15:00 9.8 5.1 73 36 4   102.17     LegendNANA
16:00 9.7 5.5 75 1 4   102.19     LegendNANA
17:00 7.1 4.7 85 26 1   102.17     LegendNANA
18:00 5.9 4.4 90   0   102.21     LegendNANA
19:00 5.4 4.2 92 23 3   102.28     LegendNANA
20:00 6.2 4.7 90 23 3   102.31     LegendNANA
21:00 6.3 4.7 90 27 2   102.33     LegendNANA
22:00 6.1 4.7 91   0   102.42     LegendNANA
23:00 6.1 4.8 91   0   102.46     LegendNANA

Notes on Data Quality.

Legend

  • E = Estimated
  • M = Missing
  • NA = Not Available*
  • [empty] = Indicates an unobserved value
Date modified: